Flag for Germany Weather past 2 weeks in Westerstede, Lower Saxony, Germany

Now
73 °F

Passing clouds.


Feels Like: 77 °F
Forecast: 60 / 79 °F
Wind: 14 mph from Northeast

Location: Wittmundhaven

Current Time: Jul 23, 2014 at 10:17:52 PM

Latest Report: Jul 23, 2014 at 9:20 PM


Visibility: N/A

Pressure: 30.09 "Hg

Humidity: 53%

Dew point: 55 °F

Location of WesterstedeLocation

Historic Weather in Westerstede — Graph

°F

Westerstede temperature yesterday

Maximum temperature yesterday: 81 °F (at 3:20 PM)
Minimum temperature yesterday: 63 °F (at 3:20 AM)
Average temperature yesterday: 71 °F

Past Weeks' High & Low Weather Summary

 TemperatureHumidityPressure
High91 °F (Jul 19, 2:20 PM)100% (Jul 8, 11:20 PM)30.18 "Hg (Jul 8, 11:20 PM)
Low54 °F (Jul 15, 4:20 AM)32% (Jul 19, 5:20 PM)29.65 "Hg (Jul 9, 3:20 PM)
Average69 °F73%29.96 "Hg
* Reported Jul 8 8:20 PM — Jul 23 8:20 PM, Westerstede, Weather by CustomWeather, © 2014

Note: Actual official high and low records may vary slightly from our data, if they occured in-between our weather recording intervals... More about our weather records

Advertising

Westerstede weather history for previous 24 hours

 ConditionsComfort  
Time TempWeatherWind HumidityBarometerVisibility
8:20 PM
Jul 23
75 °FMild.15 mph54%30.09 "HgN/A
7:20 PM77 °FPassing clouds.17 mph54%30.09 "HgN/A
6:20 PM79 °FPassing clouds.17 mph48%30.09 "HgN/A
5:20 PM79 °FPassing clouds.17 mph48%30.12 "HgN/A
4:20 PM79 °FPassing clouds.17 mph45%30.12 "HgN/A
3:20 PM79 °FPassing clouds.18 mph45%30.15 "HgN/A
2:20 PM77 °FPassing clouds.18 mph51%30.15 "HgN/A
1:20 PM77 °FPassing clouds.16 mph47%30.18 "HgN/A
12:20 PM77 °FPassing clouds.15 mph47%30.18 "HgN/A
11:20 AM75 °FPassing clouds.15 mph50%30.18 "HgN/A
10:20 AM75 °FPassing clouds.13 mph50%30.18 "HgN/A
9:20 AM73 °FPassing clouds.13 mph57%30.18 "HgN/A
7:20 AM66 °FPassing clouds.8 mph78%30.18 "HgN/A
6:20 AM64 °FPassing clouds.7 mph78%30.18 "HgN/A
5:20 AM64 °FPassing clouds.7 mph78%30.18 "HgN/A
4:20 AM66 °FPassing clouds.9 mph73%30.18 "HgN/A
3:20 AM66 °FPassing clouds.8 mph73%30.18 "HgN/A
2:20 AM66 °FPassing clouds.9 mph73%30.18 "HgN/A
1:20 AM70 °FPassing clouds.7 mph64%30.18 "HgN/A
Weather by CustomWeather, © 2014

See weather overviewHow to use our weather pages